GFSMA_500_rhum_054.txt.gz
RH
80 95 88 74 79 71 59 59 58 68 56 53 52 46 39 36 37 39 46 50 56 59 60 64 60 57 52 46 42 40 37 32 30 28 28 26 20 20 24 25 27 32 29
87 83 91 87 82 73 68 59 50 49 46 52 53 47 48 47 54 61 62 56 63 72 72 70 66 54 48 40 38 32 28 34 36 34 32 30 27 24 21 18 18 18 20
97 91 79 66 75 70 71 67 58 57 64 70 62 64 64 72 66 60 56 53 52 52 54 54 58 40 33 30 27 25 21 18 16 21 28 29 31 31 27 27 25 25 23
73 78 84 97 84 74 67 62 69 71 69 67 77 75 68 53 43 38 34 30 27 25 24 26 31 35 35 32 29 25 20 19 18 16 14 14 17 23 27 30 30 30 27
49 40 44 48 47 58 67 70 72 64 60 55 54 51 46 43 43 42 40 38 35 32 30 28 26 24 23 22 20 19 21 23 24 22 20 18 15 14 14 15 17 22 26
24 26 33 45 56 52 59 65 64 60 58 56 56 59 60 56 50 44 44 39 36 36 36 35 34 33 32 30 28 25 22 20 18 16 19 22 20 18 16 15 15 14 13
27 31 27 35 52 67 61 63 69 74 80 78 69 60 56 56 58 56 51 50 46 43 40 37 34 33 31 30 29 28 27 26 24 21 19 16 14 18 19 17 16 16 16
21 22 32 41 45 59 64 67 79 82 77 66 58 53 50 53 52 48 41 36 32 30 26 24 21 20 19 18 17 16 16 19 24 24 22 20 17 15 13 15 15 14 14
17 20 24 31 42 50 73 76 68 62 55 50 52 50 43 36 31 33 38 34 32 27 26 24 22 20 18 17 16 15 13 12 12 12 14 15 17 18 17 15 12 12 12
17 18 22 29 47 58 54 53 53 51 52 51 43 39 40 36 30 25 26 27 27 30 28 24 21 18 16 14 12 11 10 10 10 12 12 13 12 11 12 15 16 15 12
22 22 24 27 28 33 43 47 47 47 39 38 39 40 38 30 29 28 22 27 28 25 21 14 6 4 5 5 4 4 4 3 3 3 5 9 12 13 11 10 11 14 15
26 25 25 25 25 38 54 57 53 57 60 50 43 37 38 40 38 36 33 29 22 11 5 5 6 7 8 8 8 8 6 5 4 4 4 3 3 4 7 10 11 10 11
32 31 30 34 48 64 70 69 62 53 65 58 58 56 50 42 37 31 20 10 6 6 8 10 14 17 19 18 17 15 14 12 10 10 9 7 6 5 3 3 5 8 10
38 37 41 56 69 74 72 73 70 67 67 64 59 50 43 35 24 10 7 8 8 10 16 21 28 27 24 24 22 21 15 10 9 11 12 14 16 9 6 5 4 4 6
42 43 51 61 81 83 78 76 76 71 68 64 52 41 32 17 8 8 10 11 17 24 26 34 33 32 29 29 24 20 16 15 16 17 17 15 13 14 12 10 6 5 4
50 54 65 87 89 84 83 79 76 77 71 54 42 36 18 8 9 10 13 23 48 50 38 44 37 30 26 23 24 24 23 23 22 21 20 19 18 18 16 14 13 10 6
55 67 89 89 83 85 82 81 80 71 56 40 28 14 8 10 11 14 27 56 60 58 52 40 34 24 22 26 27 25 23 23 23 23 22 20 20 19 20 19 18 15 13
67 89 88 83 86 91 87 82 73 61 42 30 15 8 10 12 13 28 55 63 69 63 46 32 22 29 27 26 25 26 26 22 20 20 22 22 20 17 16 17 19 19 18
91 91 87 94 90 90 83 81 69 50 32 15 8 11 12 14 29 62 67 72 58 50 31 30 28 27 26 27 26 24 25 31 42 43 45 49 51 44 33 22 17 20 21
99 100 100 98 96 89 82 72 54 39 16 8 11 14 16 25 66 69 74 62 50 31 32 26 24 25 28 26 25 35 47 55 64 71 68 65 61 56 48 47 39 23 20
100 100 100 100 99 92 79 50 37 21 8 10 14 16 26 55 66 71 67 54 37 32 27 24 25 29 26 30 49 59 66 73 82 84 71 69 70 57 56 61 58 42 23
100 100 100 100 97 85 57 37 17 9 10 15 16 23 52 73 75 73 64 38 36 30 26 23 27 26 33 54 62 77 84 88 85 97 52 40 53 50 52 69 73 63 40
100 100 100 95 90 63 37 16 10 11 15 17 23 32 80 88 80 78 48 40 34 29 25 22 26 30 48 68 84 92 98 91 89 78 28 25 36 33 64 82 90 80 68
100 100 99 89 63 43 18 10 12 16 19 24 29 59 98 97 92 69 46 42 38 31 24 24 27 39 63 79 89 91 95 92 83 36 27 29 40 41 62 81 99 84 72
100 98 88 64 37 17 10 11 17 20 23 30 38 86 100 100 87 61 51 45 40 30 24 26 32 53 83 89 91 92 92 93 57 34 35 34 59 63 67 84 92 96 76
100 91 56 26 12 10 12 20 22 22 30 34 62 100 100 100 84 62 56 49 43 32 23 28 39 66 88 90 94 85 90 94 37 36 37 65 92 92 100 100 100 81 60

GFSMA_500_rhum_060.txt.gz
RH
67 74 49 41 52 25 24 37 23 30 34 22 20 19 19 22 29 28 30 33 40 42 52 60 57 54 51 50 52 51 56 56 58 60 61 53 46 42 38 37 35 32 32
28 24 17 22 16 14 17 19 18 18 20 21 20 22 24 25 26 27 32 31 37 47 55 55 52 47 43 38 34 32 34 40 51 57 63 51 45 38 32 29 30 31 34
13 12 13 14 17 19 19 20 21 21 21 22 21 21 23 29 33 34 36 37 40 40 42 42 44 46 45 42 40 36 30 28 27 30 37 42 43 39 37 27 23 19 20
16 17 18 18 18 19 22 23 23 22 23 23 22 20 21 24 31 35 38 38 38 36 37 36 36 37 41 43 42 44 44 43 35 28 25 26 31 31 32 33 24 20 18
20 21 21 21 22 22 22 22 23 24 25 26 25 24 23 28 33 40 44 46 44 44 41 39 40 37 32 29 28 29 33 37 37 37 36 34 28 25 26 25 28 24 20
24 24 23 23 23 23 24 24 24 24 24 24 25 25 25 31 42 51 54 54 55 50 47 43 40 36 35 35 32 31 29 25 24 26 30 32 32 31 30 29 29 24 23
26 27 27 27 27 26 26 25 24 24 25 26 26 25 24 35 53 62 60 60 62 57 51 43 36 31 26 22 19 17 15 14 14 15 18 21 24 27 28 29 31 34 33
23 21 19 20 20 20 21 22 22 22 25 28 27 24 26 55 66 73 68 59 54 44 38 34 29 26 24 21 18 16 15 14 12 11 11 10 10 14 20 22 23 27 32
17 18 19 20 20 21 21 22 23 23 28 33 31 31 43 59 62 63 56 48 46 45 44 43 40 37 32 28 26 26 19 13 11 11 12 12 12 10 10 14 18 19 21
18 18 20 20 22 24 25 24 26 34 42 39 35 58 70 62 50 39 37 34 35 43 47 46 47 46 39 32 22 12 5 3 3 3 3 3 3 5 8 12 14 17 17
19 20 20 21 23 25 27 31 40 45 39 34 60 67 62 58 53 42 33 32 36 44 50 51 46 33 15 7 6 5 5 5 5 4 4 4 4 3 3 3 6 14 18
17 18 20 24 27 28 29 33 40 40 36 51 62 64 60 51 42 38 37 38 41 47 49 42 21 8 6 7 8 9 10 10 9 9 8 8 7 6 6 5 4 3 7
19 23 28 33 30 28 33 43 44 42 57 70 70 62 52 46 49 54 56 59 57 56 47 22 6 6 8 11 12 12 17 27 28 24 21 16 12 10 9 8 7 6 4
26 32 34 34 35 44 56 53 58 76 84 83 73 61 56 68 73 84 85 76 62 41 17 5 7 10 12 13 19 31 42 46 46 44 37 29 21 17 16 16 15 13 9
40 38 37 44 58 66 66 79 88 93 94 82 71 73 88 92 92 90 80 52 18 9 6 8 12 14 23 38 52 55 55 54 48 38 30 23 17 15 14 15 15 14 13
40 41 49 67 70 77 100 98 94 91 89 88 88 92 96 99 97 80 45 13 7 8 10 13 15 22 42 57 60 51 40 28 22 23 23 22 20 19 16 11 8 8 8
41 56 71 74 82 99 100 99 98 92 81 86 95 100 100 96 68 24 9 8 9 14 16 17 30 56 60 54 45 27 27 25 23 22 21 20 20 20 19 19 18 17 16
58 66 53 61 85 89 84 80 86 90 94 100 100 100 90 51 12 8 9 12 18 19 20 40 64 65 68 47 28 28 26 24 21 20 20 22 23 23 22 21 20 20 19
54 46 67 87 94 86 86 90 87 92 100 100 97 85 36 8 8 9 15 22 21 24 53 76 77 76 55 33 29 28 25 22 20 20 22 22 23 25 24 24 21 20 19
64 86 91 96 95 98 100 100 100 100 100 90 54 13 8 9 12 18 23 24 28 63 98 99 85 69 41 38 31 27 22 19 21 24 27 34 44 52 55 52 47 36 32
95 100 100 100 100 100 100 100 100 95 80 33 10 8 9 12 18 24 26 30 56 100 100 95 84 54 45 39 30 24 19 20 27 38 46 68 65 67 72 66 62 59 52
100 95 99 100 100 100 100 98 91 56 19 10 9 11 16 20 27 27 30 44 96 100 100 97 69 49 46 35 28 21 20 26 47 62 55 77 55 62 62 60 46 30 24
100 100 100 100 100 100 100 87 48 19 12 10 11 18 21 28 32 33 38 63 100 99 92 83 59 55 46 35 28 21 25 34 54 57 56 74 52 65 38 20 18 17 17
100 100 100 100 99 97 72 37 18 15 11 13 18 22 25 34 37 46 45 89 100 100 99 78 66 58 48 36 26 21 29 54 73 66 55 63 59 44 20 19 20 24 25
100 100 100 100 96 51 29 25 23 17 14 18 23 27 32 39 45 54 56 99 100 100 99 82 69 60 46 36 25 23 34 61 79 69 61 58 63 30 21 23 37 45 39
100 100 100 76 38 33 26 27 22 18 17 24 28 36 40 47 54 60 66 100 100 100 100 88 77 65 49 38 25 23 36 71 84 80 64 64 61 26 35 48 66 68 72

GFSMA_500_rhum_063.txt.gz
RH
55 30 31 34 18 14 13 13 15 16 17 18 19 18 18 18 18 20 20 20 22 24 23 22 26 33 45 53 54 50 46 41 36 34 40 58 70 68 59 50 44 40 39
23 18 17 13 13 14 16 17 20 21 21 20 19 19 18 17 17 18 20 21 22 23 27 28 27 30 35 45 52 54 51 49 45 39 33 30 32 48 63 56 42 33 31
12 12 14 17 19 20 20 21 21 21 20 21 21 21 20 19 19 20 21 22 23 26 29 33 33 32 33 33 36 43 51 55 53 48 46 42 34 28 28 40 51 39 34
16 20 22 22 21 20 21 21 22 22 22 22 20 20 21 21 21 22 22 22 25 30 35 37 36 34 32 32 32 32 34 37 40 43 45 45 44 44 40 30 27 36 39
23 23 22 22 22 24 23 22 23 22 21 21 20 22 23 25 27 28 26 24 26 39 48 47 43 40 38 37 36 33 29 26 25 26 29 33 34 36 38 40 40 34 28
24 23 21 20 19 18 18 18 19 19 20 21 22 24 27 32 34 33 28 28 40 55 55 53 51 46 41 36 32 29 26 24 25 24 21 21 24 27 27 24 26 35 37
20 18 17 17 17 17 18 19 20 20 21 23 25 28 29 35 37 34 34 50 66 70 66 59 50 42 36 31 28 26 24 22 20 18 17 16 13 13 14 18 24 22 22
17 17 17 17 18 18 19 19 20 22 23 26 28 29 32 42 40 40 56 74 81 77 69 60 50 39 33 28 24 22 20 19 18 17 18 17 15 13 11 11 12 15 22
17 17 17 18 18 18 18 19 22 26 28 30 29 35 39 40 39 57 77 84 81 72 58 47 42 39 34 31 30 30 30 28 29 25 19 15 12 12 12 11 10 10 12
17 17 17 18 16 19 22 26 29 28 28 31 38 47 47 46 56 60 70 68 62 57 54 50 54 62 65 62 57 52 45 37 26 16 6 3 2 2 3 4 7 9 9
16 17 18 23 23 25 29 31 28 30 33 44 51 46 54 74 81 78 68 64 60 55 56 61 68 72 72 66 55 36 24 12 4 4 4 4 4 4 4 3 3 2 4
16 18 18 20 19 23 32 31 35 39 53 52 41 52 74 80 78 75 69 65 53 48 72 82 85 84 64 36 18 9 6 6 7 7 7 8 8 7 7 7 6 5 4
19 22 20 19 44 38 34 33 44 52 46 34 46 70 77 76 68 70 65 58 55 53 74 88 78 42 10 7 8 8 9 10 12 12 12 11 10 9 9 9 9 8 8
44 64 42 43 37 32 34 49 54 40 36 57 77 81 75 75 74 72 66 65 71 84 88 69 26 7 7 9 11 13 15 16 22 31 36 33 26 20 15 12 12 13 14
99 100 73 38 34 42 59 54 43 51 78 90 92 86 84 87 90 92 94 100 98 70 31 8 6 8 10 14 18 19 23 34 47 55 52 46 35 26 19 16 14 16 18
100 93 53 34 48 64 51 56 79 94 100 99 94 87 89 96 100 100 98 69 14 6 6 7 8 12 18 20 22 36 53 61 55 48 37 25 22 21 19 17 16 15 13
64 46 40 57 65 49 66 96 100 99 94 99 99 98 100 100 100 79 31 8 7 8 9 11 18 21 22 27 47 65 69 60 40 27 26 24 23 21 19 17 16 16 16
35 44 65 63 61 83 100 91 87 86 87 93 100 100 100 94 54 15 8 8 9 12 15 22 24 25 43 78 78 76 75 44 33 30 26 24 23 19 16 16 17 17 18
50 57 53 61 93 92 88 91 93 97 100 100 100 98 85 41 12 8 8 12 16 20 26 26 28 43 90 98 94 77 45 38 34 28 25 21 17 18 19 20 20 20 20
47 47 67 87 89 89 95 100 100 100 100 100 91 68 26 11 10 9 13 19 22 30 30 32 46 77 98 99 83 56 45 40 32 25 20 18 19 24 33 42 49 48 43
53 74 87 92 94 100 100 100 100 100 95 89 51 20 13 11 10 13 20 23 30 33 36 43 87 100 100 92 69 52 44 36 28 22 19 25 23 36 47 52 56 55 52
86 98 95 95 99 100 100 100 100 94 83 39 22 16 14 14 15 20 26 31 36 38 44 69 100 100 100 82 59 52 41 33 25 20 19 47 34 59 61 53 43 43 47
99 91 97 98 89 96 88 81 86 63 41 32 17 16 18 17 20 26 35 40 42 48 52 87 100 100 96 69 62 53 41 32 23 21 22 67 52 66 55 47 45 47 26
91 94 80 68 84 96 64 61 61 43 46 27 19 20 20 19 24 34 43 45 55 58 63 92 98 94 84 76 69 55 41 28 22 24 27 74 67 66 52 53 47 25 19
73 45 29 80 100 42 54 58 43 45 57 28 25 24 21 20 27 42 49 54 68 66 74 94 93 94 89 84 75 56 42 26 25 35 41 77 68 66 58 57 31 21 26
18 6 20 15 31 54 53 40 39 59 57 30 30 24 20 21 32 49 51 63 73 71 83 96 97 96 91 91 78 60 44 27 26 48 49 86 77 56 74 56 26 37 46

GFSMA_500_rhum_066.txt.gz
RH
59 50 40 16 12 11 12 14 17 17 18 18 18 19 19 19 18 17 16 16 15 15 15 15 16 21 24 28 32 39 51 51 48 50 46 43 40 35 39 58 63 60 52
43 25 12 11 12 16 18 18 18 19 19 19 18 17 17 17 17 17 18 17 17 16 16 16 18 21 26 29 34 35 38 47 49 54 57 56 50 45 41 34 35 59 65
15 13 14 17 20 21 20 19 18 18 18 17 17 17 17 18 18 19 19 19 19 18 18 19 22 25 29 31 35 39 40 43 42 44 46 46 51 54 53 49 44 35 31
16 18 22 22 21 19 17 16 16 16 16 17 18 17 17 18 20 20 20 21 21 23 25 26 28 33 36 39 37 40 39 39 42 42 43 44 46 46 45 47 48 47 45
22 22 23 21 17 16 16 16 17 17 18 18 18 18 19 20 22 22 22 21 22 30 34 34 38 42 46 48 49 46 43 39 37 34 34 36 37 38 39 40 36 36 39
24 23 19 16 16 16 16 17 17 17 18 18 19 21 23 25 25 26 25 29 36 38 36 37 45 53 55 53 49 45 41 36 32 28 26 24 22 22 23 26 29 34 32
20 16 16 16 16 16 16 16 16 16 17 20 23 25 26 26 25 30 35 41 40 40 46 55 60 63 62 58 52 46 42 39 36 34 33 31 28 26 23 20 19 19 23
15 16 16 16 16 16 15 14 15 17 21 22 20 20 20 26 32 40 41 39 47 66 77 79 75 71 65 58 53 49 44 37 32 30 27 24 22 20 19 18 17 16 16
16 16 15 15 15 13 13 16 18 20 20 23 25 24 29 37 41 44 39 46 68 76 80 80 74 68 61 54 46 43 39 36 34 32 30 27 24 21 19 16 14 13 13
16 15 15 13 12 13 18 22 22 24 24 28 28 36 49 53 41 38 56 71 76 78 79 79 71 67 61 56 57 54 47 43 42 42 43 41 39 29 17 9 5 5 7
14 14 12 14 20 26 46 70 44 25 23 28 41 50 48 43 57 74 72 78 77 78 80 89 88 86 81 77 75 77 80 72 44 26 20 13 7 5 4 3 3 3 2
14 15 19 21 27 54 79 87 69 28 26 43 48 38 46 70 75 74 73 76 76 84 84 96 92 88 89 82 58 26 11 8 6 6 6 6 7 7 6 6 6 5 5
22 27 20 38 49 54 67 56 62 34 48 40 40 60 79 75 70 76 79 75 65 68 74 87 96 84 50 20 8 7 7 8 8 8 9 10 11 11 11 11 10 10 10
35 31 48 96 82 71 53 64 39 47 41 44 68 77 78 86 94 94 90 90 89 92 96 91 56 18 7 8 8 9 10 12 15 17 18 18 19 18 15 14 12 12 12
39 45 71 91 87 55 36 45 48 38 43 71 78 82 92 96 99 100 96 99 100 89 55 12 7 8 9 11 13 18 21 23 23 25 37 45 56 46 34 23 18 16 14
30 57 47 76 42 39 50 44 39 56 83 85 91 94 99 100 100 100 100 86 46 17 10 8 9 10 13 17 21 24 25 28 45 66 78 71 61 50 36 22 16 16 17
39 34 38 32 42 46 42 48 76 86 90 99 100 100 100 100 100 91 52 29 15 10 9 9 12 16 19 23 26 27 34 62 87 87 75 59 46 28 24 24 23 21 20
44 23 32 43 46 45 60 83 89 96 100 100 100 100 100 91 50 47 28 17 12 10 11 13 19 23 29 30 28 37 80 100 94 86 62 37 31 32 29 26 24 22 18
22 35 46 46 48 72 84 90 98 98 98 96 80 84 48 39 60 35 24 16 15 13 15 19 25 31 33 34 45 80 95 96 87 62 38 35 33 28 25 21 18 15 14
38 48 46 52 77 92 97 95 92 84 56 63 90 64 44 62 46 40 19 19 16 15 19 24 32 37 40 44 70 93 99 92 71 55 44 38 30 24 20 18 17 18 21
50 47 57 81 92 94 90 78 53 12 29 70 51 49 55 46 49 37 23 22 16 18 22 33 40 44 49 65 90 97 93 80 65 52 41 34 27 22 20 19 24 30 39
47 60 76 86 88 87 61 21 5 10 25 26 52 54 41 44 52 32 28 21 17 22 29 42 49 53 61 84 98 96 93 72 63 49 40 28 25 22 23 31 39 44 47
52 73 84 81 74 38 8 5 6 7 18 43 58 45 40 56 42 32 27 20 18 26 41 47 56 62 72 96 100 100 82 74 67 47 36 27 22 30 39 48 47 49 46
82 86 82 63 22 6 6 6 8 13 38 58 41 47 58 46 37 31 23 18 19 32 45 49 61 68 77 97 97 94 84 80 74 50 35 25 25 50 62 59 56 49 42
84 75 50 14 6 6 6 8 14 24 42 46 57 63 47 40 35 24 19 18 21 37 47 56 68 71 80 93 93 93 88 88 78 57 33 26 42 80 78 69 56 41 54
71 40 11 6 6 6 6 9 17 29 40 54 54 51 45 37 26 19 18 20 26 42 49 62 78 76 79 93 93 88 87 88 74 65 33 30 57 72 89 75 48 56 41

GFSMA_500_rhum_072.txt.gz
RH
50 33 30 31 38 35 13 14 17 16 15 15 14 14 14 14 14 13 11 10 8 6 5 4 5 6 10 13 14 15 16 19 22 24 26 28 31 31 32 30 34 39 38
34 39 41 45 23 14 15 17 17 17 16 15 15 15 14 14 11 10 8 8 7 6 5 5 6 10 16 21 20 23 27 31 33 33 33 32 35 37 37 38 34 36 44
52 62 62 17 14 17 18 19 18 17 16 16 15 14 11 8 8 8 8 7 6 6 6 9 15 22 26 28 29 30 31 31 30 31 31 31 33 38 43 44 44 39 36
82 54 16 16 20 21 21 19 17 16 16 15 13 10 8 8 8 8 7 7 8 13 19 25 29 30 30 29 28 27 27 28 31 36 40 43 43 44 51 52 49 49 45
27 17 19 22 23 23 22 17 16 16 14 12 9 8 8 9 13 15 12 14 20 27 31 32 33 31 30 29 30 33 35 35 34 39 47 52 54 57 60 61 59 55 50
18 21 24 26 25 20 16 16 16 14 10 8 8 7 11 14 20 17 24 28 30 34 34 32 30 30 32 37 38 39 38 38 34 31 32 38 51 60 60 58 60 58 54
23 25 27 23 16 16 16 14 12 9 9 8 10 13 11 14 18 22 28 32 34 34 30 30 32 40 42 39 39 40 36 34 33 34 32 30 27 34 39 44 53 56 52
25 26 19 17 17 15 14 11 10 11 10 10 18 21 16 18 20 32 36 37 33 31 32 40 48 49 47 49 46 47 43 44 40 38 40 41 40 35 31 32 37 35 40
24 18 17 16 14 14 15 14 14 12 9 10 17 26 29 30 35 34 34 35 30 35 46 52 51 49 46 45 39 31 20 14 10 9 8 10 14 20 29 35 35 40 40
18 20 25 19 16 15 17 14 11 9 21 13 12 28 41 43 53 41 35 28 33 52 54 51 49 41 29 19 13 11 5 4 3 3 3 3 3 3 3 3 7 17 26
19 25 27 26 20 14 27 27 28 26 19 23 22 28 34 42 43 37 31 41 56 54 47 40 30 19 12 10 6 5 4 4 3 3 3 3 3 4 5 7 7 7 6
26 29 33 32 24 41 32 28 41 46 50 56 33 30 46 46 40 33 41 61 58 56 42 24 13 10 8 6 5 4 4 4 4 4 5 6 7 7 7 7 8 8 8
27 46 52 38 43 49 27 46 46 66 66 80 47 40 48 40 35 49 63 60 50 39 16 10 10 8 6 6 5 5 5 6 7 8 8 8 9 10 11 10 10 9 8
70 70 55 55 61 62 64 68 78 84 100 93 42 48 42 34 47 66 68 54 36 14 8 8 8 8 7 8 9 8 11 12 10 10 11 13 14 17 17 19 20 19 17
55 58 68 66 85 94 73 82 86 92 98 68 48 46 38 51 73 76 58 32 11 8 8 8 10 9 10 17 14 16 20 15 14 13 16 18 21 24 26 25 24 24 23
97 86 82 91 99 100 100 96 87 76 39 50 50 38 55 78 77 57 30 11 6 7 9 12 13 21 24 31 27 27 22 17 14 17 22 28 30 29 30 38 42 44 42
97 100 100 100 100 100 89 63 76 36 53 52 37 56 82 74 57 28 12 7 8 8 8 8 22 31 38 38 37 32 23 17 16 25 34 35 35 41 58 70 64 55 48
100 100 100 99 95 98 41 50 67 53 54 41 65 76 73 55 29 12 8 8 8 8 11 12 28 46 50 44 42 30 22 17 22 36 40 40 46 65 70 67 54 43 39
100 100 100 99 90 76 40 57 54 56 39 68 77 74 57 32 13 9 9 8 9 10 16 30 41 54 55 51 39 28 19 19 35 44 43 44 61 69 60 50 53 47 42
100 100 92 82 69 42 41 56 53 39 70 77 76 57 36 17 10 10 9 9 10 14 28 43 50 54 53 43 32 23 19 25 44 50 50 55 71 60 59 51 52 40 35
99 57 79 93 49 40 57 44 43 74 80 78 61 41 24 13 11 10 10 10 15 26 38 47 49 45 36 30 24 21 20 31 52 57 56 72 70 64 54 52 43 35 30
14 73 25 33 50 48 38 57 80 83 80 67 47 26 15 13 12 10 10 13 21 34 41 40 34 27 23 23 22 22 25 43 58 69 64 89 83 82 66 54 41 32 26
24 29 36 43 42 45 73 86 87 80 69 51 29 17 14 12 11 9 11 17 22 22 21 20 20 22 23 24 25 29 37 53 67 75 72 85 89 76 74 54 44 30 24
41 41 42 44 59 80 89 88 82 67 50 31 20 16 13 11 10 14 20 25 22 17 17 18 21 24 25 30 32 38 55 63 81 81 85 81 91 83 74 54 43 28 30
47 44 54 68 82 88 86 83 66 52 38 24 19 15 12 9 12 16 20 20 16 18 21 24 27 28 33 34 39 45 65 81 97 91 94 83 92 81 76 63 43 27 39
53 66 77 85 81 82 81 69 50 39 30 26 21 14 9 9 12 20 16 15 16 24 26 27 28 43 35 31 39 56 69 97 100 100 91 88 100 84 75 72 39 26 46

GFSMA_500_rhum_075.txt.gz
RH
96 95 65 40 29 32 48 34 12 14 17 17 16 14 13 12 11 10 10 8 6 5 6 5 5 6 8 10 12 15 19 22 24 25 26 27 28 30 31 32 32 33 33
96 96 37 32 31 45 26 13 18 19 18 17 15 14 14 13 11 8 5 5 5 7 6 5 11 15 18 23 26 27 28 28 28 27 27 27 26 27 28 30 30 31 35
65 47 52 44 56 20 16 21 21 20 17 15 15 15 14 11 8 6 6 7 8 8 6 14 14 15 17 19 24 28 28 29 29 28 28 28 28 28 28 30 31 34 36
72 69 75 88 18 18 21 23 22 18 16 16 16 13 11 8 6 7 10 8 7 7 12 20 20 20 21 21 23 24 25 26 27 32 35 38 36 33 33 33 32 33 37
72 92 84 22 19 22 25 25 19 16 17 16 13 10 9 6 8 9 8 7 13 18 23 16 23 21 22 24 26 28 29 30 32 30 31 33 36 35 34 32 32 32 38
93 58 19 21 24 26 25 18 17 17 15 12 10 9 8 7 8 9 9 14 19 23 25 28 25 23 25 30 34 35 32 33 30 27 22 18 18 20 26 30 33 34 38
81 20 22 24 25 23 17 17 16 14 12 10 10 8 6 7 12 15 19 22 28 28 24 27 27 28 35 35 33 38 36 30 24 21 20 18 15 13 13 14 16 20 29
66 28 23 25 23 17 17 15 14 13 11 11 8 7 8 7 6 7 12 25 22 31 31 27 29 36 43 41 35 26 23 21 15 13 12 11 9 8 7 7 6 6 8
33 24 26 24 18 17 20 16 13 11 14 15 20 13 16 12 10 28 24 18 28 32 29 32 42 42 39 34 29 23 18 15 13 12 11 9 8 7 6 5 4 4 4
67 34 25 18 18 25 27 18 17 22 22 16 10 16 21 27 34 40 41 40 36 26 31 44 50 44 35 30 22 18 14 13 12 10 8 7 5 5 4 3 3 2 2
97 79 46 24 29 25 26 24 40 48 28 34 32 36 36 29 39 57 38 45 37 33 48 48 42 37 30 21 17 16 13 12 10 7 6 5 4 4 4 4 4 4 4
94 99 87 71 40 39 36 44 56 50 44 38 63 88 80 82 78 42 44 40 33 52 59 55 42 33 23 18 16 14 12 9 7 6 5 5 6 6 7 8 8 8 8
96 96 74 57 63 63 56 50 52 36 38 64 84 59 47 49 40 51 41 34 52 62 60 46 32 23 19 16 15 12 9 6 6 8 10 11 12 12 10 10 11 12 12
68 65 57 53 75 75 78 65 69 61 73 97 87 36 46 52 49 42 36 57 62 61 49 35 23 16 17 17 14 8 6 6 9 16 20 24 20 14 12 14 16 18 20
72 75 66 84 90 90 67 79 98 89 96 100 98 42 40 53 43 38 67 72 67 53 42 27 17 13 12 10 8 7 9 16 21 26 30 27 20 14 14 19 25 28 28
89 90 100 91 72 72 99 100 100 100 100 95 94 25 42 47 38 68 76 71 58 45 35 20 18 15 10 9 11 15 22 31 35 40 35 29 18 14 21 30 33 33 31
96 98 99 81 97 98 100 99 100 99 98 94 49 39 53 41 72 79 73 64 47 26 23 26 18 10 7 13 18 25 36 39 41 37 30 22 17 18 34 37 36 39 44
99 99 97 63 77 100 100 100 99 96 100 80 52 55 43 74 76 76 66 47 28 21 22 22 14 7 11 17 22 26 31 35 31 26 22 20 18 29 42 40 46 57 59
99 98 92 92 100 99 99 100 99 95 88 55 53 44 80 80 79 66 47 32 23 23 19 10 8 10 16 22 23 22 21 20 20 21 22 22 23 39 46 44 54 65 58
98 89 82 67 100 100 100 99 100 100 56 52 48 82 82 83 66 49 32 23 23 22 12 9 11 15 22 24 19 18 19 20 21 22 24 26 33 48 53 54 58 60 56
30 17 13 14 30 45 25 21 41 49 48 57 82 84 79 66 56 40 25 23 18 12 10 14 17 16 19 16 16 19 22 25 24 29 35 36 51 55 62 60 59 53 55
15 18 24 29 31 35 46 56 50 48 69 80 83 76 68 62 54 43 39 31 20 10 9 14 14 17 16 18 24 25 27 27 28 44 40 50 71 67 68 64 60 56 54
28 37 39 42 50 57 55 51 63 75 80 82 72 66 64 58 45 34 30 21 15 9 7 8 10 14 15 21 26 27 29 29 32 42 53 64 90 77 76 72 61 60 61
38 43 49 55 62 59 62 74 79 79 76 70 64 65 62 54 42 33 26 17 10 10 11 10 12 13 17 23 25 26 28 29 32 47 64 73 98 84 83 73 70 65 59
46 52 62 68 69 76 78 82 83 77 75 71 69 64 54 50 40 28 19 12 9 8 11 11 11 12 19 20 28 48 46 31 31 54 76 84 100 93 90 79 77 64 56
59 69 77 85 87 85 78 80 82 84 78 70 67 56 52 48 38 24 14 11 8 8 11 10 7 14 18 33 81 96 72 36 32 58 88 92 100 97 88 89 80 71 54